IRIDIUM 33 DEB, 34487

Orbit data source: Space-Track

IRIDIUM 33 DEB, 34487 is space debris in LEO originally from a launch on Sun, 14 Sep 1997 UTC launched from the Tyuratam Missile And Space Complex (TTMTR). The debris from Iridium 33, an American commercial communications satellite, has been tracked extensively since its accidental collision with the defunct Russian satellite Cosmos 2251 in 2009. This event, occurring at high speed in low Earth orbit (LEO), generated thousands of pieces of space debris, significantly increasing the risk of further collisions. The Iridium 33 debris cloud has impacted space traffic management and orbital debris mitigation strategies, making it a subject of ongoing study in space situational awareness.

Loading next visibility...
Identifier
34487, 1997-051GC
Orbit
LEO
Country
Flag of USUS
Related business
Manufacturer
Unknown
Mission
Spacecraft
Bus & Motor
Unknown
Mass
Unknown
Launch date (UTC)
1997-09-14 (28 years ago)
Launch vehicle
Unknown
Launch site
Tyuratam Missile And Space Complex (TTMTR)
Object type
Payload
Rocket body
Debris
Shape & HBR
Unknown shape, 0.1 m
Radar Cross Section
Small (<0.1 m²)

Expand to show TLE details & history
Last TLE update: 2 days ago

TLE from 2 days ago
0 IRIDIUM 33 DEB
1 34487U 97051GC  25352.32356529  .00000538  00000-0  15301-3 0  9999
2 34487  86.3431   9.9731 0033122 110.9986 270.0816 14.43223269883297
Epoch: 2025-12-18T07:45Z
TLE epoch observation values (Epoch: 2025-12-18T07:45:56.041Z)
Latitude
20.66186°
Longitude
167.68255°
Altitude
750.615 km
Speed
7.481 km/s
True Right ascension
00h 45m 23s
True Declination
20° 32' 54"
Sunlit
Object was in daylight at epoch
Visualization orbit readout
Latitude
Unknown
Longitude
Unknown
Altitude
Unknown
Speed
Unknown
Apparent Right ascension
Unknown
Apparent Declination
Unknown
Sunlit
N/A
Visualization observer readout
Local Sidereal Time
01:29:04
Azimuth
Unknown
Elevation
Unknown
Doppler factor
Unknown
Orbital elements
Apogee altitude
768.414 km
Perigee altitude
721.229 km
Semi-major axis
7,122.958 km
Eccentricity
0.00331
Inclination
86.3431°
RAAN
9.9731°
Arg. of periapsis
110.9986°
True anomaly
269.70205°
Mean anomaly
270.0816°
Eccentric anomaly
269.89183°
Mean motion
3.61038 °/min
Orbital period
99.71 mins
BSTAR
0.00015301
Loading maneuver chart data...
Computing Atmospheric mass density...
Loading historical data...
Loading historical data...
Loading historical data...
Loading historical data...
Loading historical data...
Loading historical data...
Loading historical data...

Documentation

Showing up to 5 results
|